Home > Weather > Sault Ste. Marie > Past weeks

Flag for Canada Weather for the Past 2 Weeks in Sault Ste. Marie, Ontario, Canada

Now
46 °F

Broken clouds.


Feels Like: 41 °F
Forecast: 42 / 52 °F
Wind: 10 mph from Northwest

Location: Sault Ste Marie

Current Time: May 4, 2016 at 12:38:14 PM

Latest Report: May 4, 2016 at 12:00 PM


Visibility: 15 mi

Pressure: 29.74 "Hg

Humidity: 71%

Dew Point: 37 °F

Location of Sault Ste. MarieLocation

Historic Weather in Sault Ste. Marie — Graph

°F

Sault Ste. Marie Temperature Yesterday

Maximum temperature yesterday: 61 °F (at 1:00 PM)
Minimum temperature yesterday: 28 °F (at 5:00 AM)
Average temperature yesterday: 45 °F

High & Low Weather Summary for the Past Weeks

 TemperatureHumidityPressure
High63 °F (Apr 20, 1:00 PM)100% (Apr 20, 6:00 AM)30.45 "Hg (Apr 20, 6:00 AM)
Low25 °F (Apr 27, 6:00 AM)22% (Apr 19, 4:00 PM)29.65 "Hg (May 4, 1:00 AM)
Average42 °F68%30.08 "Hg
* Reported Apr 19 11:00 AM — May 4 11:00 AM, Sault Ste. Marie, Weather by CustomWeather, © 2016

Note: Actual official high and low records may vary slightly from our data, if they occured in-between our weather recording intervals... More about our weather records

Advertising

Sault Ste. Marie Weather History for the Previous 24 Hours

Scroll right to see more
 ConditionsComfort  
Time TempWeatherWind HumidityBarometerVisibility
11:00 AM
Wed, May 4
46 °FPartly sunny.10 mph76%29.73 "Hg15 mi
10:00 AM46 °FBroken clouds.9 mph82%29.72 "Hg15 mi
9:00 AM43 °FBroken clouds.6 mph93%29.71 "Hg15 mi
8:52 AM43 °FBroken clouds.6 mph87%29.71 "Hg15 mi
8:00 AM41 °FLight rain. Partly sunny.2 mph93%29.70 "Hg15 mi
7:00 AM41 °FPassing clouds.2 mph93%29.69 "Hg15 mi
6:00 AM39 °FFog.7 mph93%29.67 "Hg1 mi
5:00 AM39 °FFog.7 mph93%29.66 "Hg1 mi
4:00 AM39 °FFog.7 mph93%29.65 "Hg1 mi
3:00 AM39 °FFog.3 mph93%29.65 "Hg3 mi
2:00 AM41 °FFog.9 mph100%29.65 "Hg3 mi
1:00 AM45 °FFog.No wind93%29.65 "Hg3 mi
12:00 AM43 °FFog.2 mph93%29.65 "Hg3 mi
11:51 PM
Tue, May 3
43 °FQuite cool.No wind93%29.66 "Hg3 mi
11:00 PM45 °FPartly cloudy.2 mph93%29.67 "Hg10 mi
10:00 PM45 °FPartly cloudy.2 mph93%29.68 "Hg8 mi
9:00 PM45 °FPartly sunny.No wind93%29.69 "Hg15 mi
8:00 PM45 °FLight rain. Mostly cloudy.3 mph93%29.68 "Hg12 mi
7:00 PM48 °FLight rain. Cloudy.8 mph82%29.69 "Hg12 mi
6:00 PM52 °FLight rain. Mostly cloudy.7 mph67%29.69 "Hg15 mi
5:00 PM55 °FMostly cloudy.10 mph44%29.67 "Hg15 mi
4:00 PM59 °FMostly cloudy.10 mph39%29.66 "Hg15 mi
3:00 PM61 °FMostly cloudy.8 mph36%29.68 "Hg15 mi
2:00 PM59 °FMostly cloudy.5 mph39%29.71 "Hg15 mi
1:00 PM61 °FPartly sunny.8 mph39%29.73 "Hg15 mi
12:00 PM59 °FMore clouds than sun.12 mph36%29.77 "Hg15 mi
Weather by CustomWeather, © 2016

See weather overviewHow to use our weather pages